Location: Bratislava
(48.1500°N, 17.1170°E)
Time: 03:06:30
(UTC+02:00)

ISS - Visible Passes

Search period start: 25 May 2017 00:00
Search period end: 04 June 2017 00:00
Orbit: 402 x 409 km, 51.6° (Epoch: 25 May)

Date Brightness Start Highest point End Pass type
(mag) Time Alt. Az. Time Alt. Az. Time Alt. Az.
25 May -2.6 01:07:24 10° WNW 01:10:35 43° N 01:13:44 10° ENE visible
25 May -3.9 02:44:00 10° WNW 02:47:18 88° NNE 02:50:35 10° ESE visible
25 May -2.4 04:21:00 10° W 04:23:28 20° SW 04:25:53 10° S visible
25 May -3.9 22:38:25 10° WSW 22:41:43 90° NW 22:45:02 10° ENE visible
26 May -2.6 00:15:15 10° WNW 00:18:26 43° N 00:21:37 10° ENE visible
26 May -3.4 01:51:57 10° WNW 01:55:15 64° NNE 01:58:31 10° E visible
26 May -3.1 03:28:38 10° W 03:31:36 31° SW 03:34:33 10° SSE visible
26 May -3.8 21:46:27 10° SW 21:49:42 60° SSE 21:52:58 10° ENE visible
26 May -2.8 23:23:04 10° W 23:26:17 48° N 23:29:30 10° ENE visible
27 May -3.0 00:59:54 10° WNW 01:03:08 50° N 01:06:21 10° E visible
27 May -3.8 02:36:27 10° WNW 02:39:40 51° SSW 02:42:51 10° SE visible
27 May -3.2 22:30:53 10° W 22:34:10 59° NNW 22:37:26 10° ENE visible
28 May -2.7 00:07:47 10° WNW 00:10:59 44° N 00:14:09 10° E visible
28 May -3.9 01:44:21 10° WNW 01:47:25 73° W 01:47:25 73° W visible
28 May -3.7 21:38:45 10° WSW 21:42:03 79° NNW 21:45:21 10° ENE visible
28 May -2.6 23:15:37 10° WNW 23:18:48 43° N 23:21:58 10° ENE visible
29 May -3.7 00:52:17 10° WNW 00:55:34 72° NNE 00:56:00 61° ENE visible
29 May -2.7 22:23:25 10° W 22:26:37 46° N 22:29:49 10° ENE visible
30 May -3.1 00:00:11 10° WNW 00:03:26 54° NNE 00:05:06 25° E visible
30 May -1.7 01:36:47 10° WNW 01:37:43 17° W 01:37:43 17° W visible
30 May -3.0 21:31:11 10° W 21:34:26 54° NNW 21:37:41 10° ENE visible
30 May -2.8 23:08:03 10° WNW 23:11:16 46° N 23:14:23 10° E visible
31 May -3.1 00:44:37 10° WNW 00:47:00 43° W 00:47:00 43° W visible
31 May -2.6 22:15:52 10° WNW 22:19:04 43° N 22:22:14 10° ENE visible
31 May -3.8 23:52:29 10° WNW 23:55:48 81° NNE 23:56:24 56° E visible
01 Jun -2.6 21:23:38 10° W 21:26:50 44° N 21:30:01 10° ENE visible
01 Jun -3.3 23:00:22 10° WNW 23:03:39 60° NNE 23:05:50 19° E visible
02 Jun -2.0 00:36:59 10° WNW 00:38:28 22° W 00:38:28 22° W visible
02 Jun -2.9 22:08:12 10° WNW 22:11:26 48° N 22:14:39 10° E visible
02 Jun -3.8 23:44:45 10° WNW 23:47:57 58° SW 23:47:57 58° SW visible
03 Jun -3.9 22:52:35 10° WNW 22:55:53 88° SW 22:57:28 28° ESE visible
